TimePDT,TemperatureF,Dew PointF,Humidity,Sea Level PressureIn,VisibilityMPH,Wind Direction,Wind SpeedMPH,Gust SpeedMPH,PrecipitationIn,Events,Conditions,WindDirDegrees,DateUTC
12:56 AM,64.0,52.0,65,29.91,10.0,Calm,Calm,-,N/A,,Clear,0,2013-04-29 07:56:00
1:56 AM,63.0,52.0,67,29.90,10.0,Calm,Calm,-,N/A,,Clear,0,2013-04-29 08:56:00
2:56 AM,61.0,53.1,75,29.88,10.0,Calm,Calm,-,N/A,,Clear,0,2013-04-29 09:56:00
3:56 AM,60.1,53.1,78,29.90,10.0,WSW,4.6,-,N/A,,Clear,250,2013-04-29 10:56:00
4:56 AM,57.9,51.1,78,29.89,10.0,SE,3.5,-,N/A,,Clear,140,2013-04-29 11:56:00
5:56 AM,59.0,52.0,78,29.89,10.0,Calm,Calm,-,N/A,,Clear,0,2013-04-29 12:56:00
6:56 AM,60.1,52.0,75,29.91,10.0,Calm,Calm,-,N/A,,Clear,0,2013-04-29 13:56:00
7:56 AM,64.9,54.0,68,29.92,10.0,Calm,Calm,-,N/A,,Clear,0,2013-04-29 14:56:00
8:56 AM,69.1,55.0,61,29.92,10.0,North,5.8,-,N/A,,Clear,360,2013-04-29 15:56:00
9:56 AM,71.1,57.9,63,29.92,10.0,North,8.1,-,N/A,,Clear,360,2013-04-29 16:56:00
10:56 AM,75.0,61.0,62,29.91,10.0,North,8.1,-,N/A,,Clear,350,2013-04-29 17:56:00
11:56 AM,80.1,53.1,39,29.90,10.0,North,10.4,-,N/A,,Clear,350,2013-04-29 18:56:00
12:56 PM,84.0,51.1,32,29.88,10.0,North,13.8,-,N/A,,Clear,350,2013-04-29 19:56:00
1:56 PM,84.9,48.0,28,29.86,10.0,NNW,11.5,-,N/A,,Clear,340,2013-04-29 20:56:00
2:56 PM,80.1,54.0,40,29.84,10.0,NNW,11.5,-,N/A,,Clear,340,2013-04-29 21:56:00
3:56 PM,75.0,55.9,51,29.82,10.0,North,15.0,-,N/A,,Clear,350,2013-04-29 22:56:00
4:56 PM,73.0,55.9,55,29.81,10.0,North,15.0,-,N/A,,Clear,350,2013-04-29 23:56:00
5:56 PM,73.0,57.0,57,29.80,10.0,North,13.8,-,N/A,,Clear,360,2013-04-30 00:56:00
6:56 PM,71.1,55.9,59,29.79,10.0,North,15.0,-,N/A,,Clear,350,2013-04-30 01:56:00
7:56 PM,66.9,54.0,63,29.80,10.0,NNW,12.7,-,N/A,,Clear,340,2013-04-30 02:56:00
8:56 PM,64.9,52.0,63,29.81,10.0,North,8.1,-,N/A,,Clear,350,2013-04-30 03:56:00
9:56 PM,64.0,50.0,60,29.83,10.0,North,6.9,-,N/A,,Clear,350,2013-04-30 04:56:00
10:56 PM,62.1,52.0,70,29.83,10.0,North,9.2,-,N/A,,Clear,360,2013-04-30 05:56:00
11:56 PM,60.1,51.1,72,29.83,10.0,North,5.8,-,N/A,,Clear,350,2013-04-30 06:56:00